SHT22A EGLL-EGJB

Flight info

Callsign SHT22A
Flight time N/A
Altitude 21000
Route GASGU N514 EVTES N621 SAM/N0383F200 N63 LELNA
Aircraft A319/M-SDE3FGHIRWY/LB1

Departure

Time 2026-04-30 15:00
Airport London Heathrow Airport (EGLL)

Arrival

Time N/A
Airport Guernsey Airport (EGJB)
Time Latitude Longitude Altitude Speed Heading
2026-04-30 14:38 51.46821 -0.48683 87 ft 0 kts 180°
2026-04-30 14:53 51.46837 -0.48683 90 ft 2 kts 182°
2026-04-30 14:54 51.46870 -0.48680 87 ft 2 kts 214°
2026-04-30 14:54 51.46876 -0.48660 89 ft 0 kts 270°
2026-04-30 14:56 51.46876 -0.48685 87 ft 4 kts 270°
2026-04-30 14:57 51.46871 -0.48742 89 ft 6 kts 237°
2026-04-30 14:57 51.46760 -0.48752 87 ft 11 kts 180°
2026-04-30 14:58 51.46584 -0.48779 88 ft 15 kts 198°
2026-04-30 14:58 51.46495 -0.48757 88 ft 10 kts 136°
2026-04-30 14:58 51.46479 -0.48313 89 ft 60 kts 90°
2026-04-30 14:59 51.46487 -0.45788 210 ft 150 kts 89°
2026-04-30 15:00 51.46064 -0.40564 1742 ft 191 kts 125°
2026-04-30 15:00 51.44340 -0.36817 2831 ft 236 kts 124°
2026-04-30 15:01 51.41894 -0.33222 4951 ft 248 kts 158°
2026-04-30 15:01 51.40775 -0.32796 5643 ft 251 kts 172°
2026-04-30 15:02 51.39833 -0.32748 5616 ft 256 kts 185°
2026-04-30 15:02 51.38235 -0.33823 5874 ft 257 kts 207°
2026-04-30 15:03 51.33999 -0.39705 8223 ft 274 kts 217°
2026-04-30 15:03 51.31166 -0.43967 10018 ft 288 kts 227°
2026-04-30 15:04 51.29504 -0.50063 11244 ft 321 kts 250°
2026-04-30 15:04 51.27514 -0.61046 12902 ft 354 kts 250°
2026-04-30 15:05 51.25289 -0.72494 14980 ft 366 kts 249°
2026-04-30 15:06 51.23742 -0.80332 16339 ft 372 kts 249°
2026-04-30 15:06 51.22178 -0.88273 17696 ft 378 kts 249°
2026-04-30 15:07 51.20612 -0.95364 18824 ft 379 kts 239°
2026-04-30 15:07 51.17740 -1.02033 19923 ft 380 kts 227°
2026-04-30 15:08 51.14467 -1.08730 20711 ft 384 kts 227°
2026-04-30 15:08 51.09561 -1.18758 21165 ft 378 kts 226°
2026-04-30 15:09 51.05718 -1.24111 21164 ft 365 kts 207°
2026-04-30 15:09 51.01464 -1.28443 21170 ft 365 kts 208°
2026-04-30 15:10 50.97270 -1.32725 21167 ft 364 kts 208°
2026-04-30 15:11 50.88586 -1.40044 21168 ft 361 kts 202°
2026-04-30 15:11 50.84097 -1.43621 21169 ft 361 kts 202°
2026-04-30 15:12 50.77395 -1.48955 21167 ft 360 kts 202°
2026-04-30 15:13 50.72914 -1.52514 21154 ft 360 kts 202°
2026-04-30 15:14 50.63964 -1.59599 21151 ft 360 kts 201°
2026-04-30 15:14 50.57252 -1.64890 21150 ft 360 kts 201°
2026-04-30 15:16 50.46065 -1.73659 21145 ft 359 kts 201°
2026-04-30 15:17 50.37105 -1.80654 21134 ft 359 kts 201°
2026-04-30 15:18 50.25911 -1.89363 21125 ft 360 kts 201°
2026-04-30 15:19 50.19181 -1.94549 21000 ft 356 kts 202°